Regional Weather Roundup
Issued by NWS

Home | Current Version | Previous Version | Text Only | Print | Product List | Glossary On
Versions: 1 2 3 4 5 6 7 8 9 10 11 12 13 14 15 16 17 18 19 20 21 22 23 24 25 26 27 28 29 30 31 32 33 34 35 36 37 38 39 40 41 42 43 44 45 46 47 48 49 50
000
ASUS43 KLOT 050800
RWRIL

ILLINOIS REGIONAL WEATHER ROUNDUP
NATIONAL WEATHER SERVICE CHICAGO/ROMEOVILLE IL
300 AM CDT TUE MAY 05 2015

NOTE: "FAIR" INDICATES FEW OR NO CLOUDS BELOW 12,000 FEET WITH NO
SIGNIFICANT WEATHER AND/OR OBSTRUCTIONS TO VISIBILITY.

* THESE STATIONS ARE NOT UNDER NWS QUALITY CONTROL. THEY ALSO MAY NOT
  REPORT WEATHER SUCH AS PRECIPITATION OR FOG.

ILZ001-002-007-009-015-016-024-050900-
NORTHWEST ILLINOIS

CITY           SKY/WX    TMP DP  RH WIND       PRES   REMARKS
MOLINE         LGT RAIN  61  59  93 E13       30.11F FOG
$$

ILZ003-004-008-010-011-017-018-050900-
NORTH CENTRAL ILLINOIS

CITY           SKY/WX    TMP DP  RH WIND       PRES   REMARKS
ROCKFORD       RAIN      52  47  83 E5        30.21R
$$

ILZ005-006-012>014-019>023-050900-
NORTHEAST ILLINOIS

CITY           SKY/WX    TMP DP  RH WIND       PRES   REMARKS
CHICAGO-OHARE  LGT RAIN  53  45  74 NE7       30.17F
CHICAGO-MIDWAY NOT AVBL
AURORA         LGT RAIN  53  46  77 N9        30.17R
WAUKEGAN       NOT AVBL
DUPAGE AIRPORT RAIN      52  46  80 N7        30.17S
WHEELING       LGT RAIN  51  45  79 NE3       30.20S
NORTHERLY ISL    N/A     51  44  77 N3          N/A
$$

LMZ740>746-050900-
SOUTHERN LAKE MICHIGAN

STATION/POSITION SKY/WX   TEMP    WIND        PRES    VSBY  WAVE
                          AIR SEA DIR/SP/G                  HT/PER
                          (F)     (DEG/KT/KT) (MB)    (MI)  (FT/S)
HARRISON CRIB              54     290/  7/  9   N/A
BURNHAM HARBOR             54     330/  2/  9   N/A
CALUMET HARBOR             51      CALM  /  2   N/A
BURNS HARBOR               55     250/  4/ 26 1022.0S
MICHIGAN CITY              59      50/  3/  3   N/A
MICHIGAN CITY 6N           52 50   90/  4/  4   N/A           1
ST. JOSEPH                 53 50   40/  6/  6   N/A           0
$$

ILZ025>027-034>036-040-047-049-050-058-095>099-050900-
WEST-CENTRAL ILLINOIS

CITY           SKY/WX    TMP DP  RH WIND       PRES   REMARKS
QUINCY         CLOUDY    64  63  94 E7        30.09F
$$

ILZ028>032-037-038-041>044-048-051>054-059>061-050900-
CENTRAL ILLINOIS

CITY           SKY/WX    TMP DP  RH WIND       PRES   REMARKS
PEORIA         CLOUDY    66  61  84 N7        30.10R
SPRINGFIELD    CLOUDY    70  55  59 S10       30.11R
TAYLORVILLE    NOT AVBL
$$

ILZ033-039-045-046-055>057-062-063-050900-
EAST-CENTRAL ILLINOIS

CITY           SKY/WX    TMP DP  RH WIND       PRES   REMARKS
MATTOON        MOCLDY    68  54  60 S10       30.14S
$$

ILZ079-100>102-050900-
SOUTHWEST ILLINOIS

CITY           SKY/WX    TMP DP  RH WIND       PRES   REMARKS
$$

ILZ064>066-069>071-074>076-080>082-084>086-088>090-092>094-050900-
SOUTH-CENTRAL ILLINOIS

CITY           SKY/WX    TMP DP  RH WIND       PRES   REMARKS
CARBONDALE     NOT AVBL
$$

ILZ067-068-072-073-078-083-087-091-050900-
SOUTHEAST ILLINOIS

CITY           SKY/WX    TMP DP  RH WIND       PRES   REMARKS
$$

ABBREVIATIONS USED IN REMARKS
   TC - TEMPERATURE IN CELSIUS
  WCI - WIND CHILL INDEX
   HX - HEAT INDEX
  VSB - VISIBILITY
$$




USA.gov is the U.S. government's official web portal to all federal, state and local government web resources and services.